Flag for India Weather past 2 weeks in Pudukkottai, Tamil Nadu, India

Now
93 °F

Scattered clouds.


Feels Like: 98 °F
Forecast: 79 / 99 °F
Wind: 9 mph from Southeast

Location: Tiruchchirapalli

Current Time: Aug 28, 2015 at 7:03:19 PM

Latest Report: Aug 28, 2015 at 6:40 PM


Visibility: 5 mi

Pressure: 29.71 "Hg

Humidity: 44%

Dew point: 68 °F

Location of PudukkottaiLocation

Historic Weather in Pudukkottai — Graph

°F

Pudukkottai temperature yesterday

Maximum temperature yesterday: 99 °F (at 1:10 PM)
Minimum temperature yesterday: 79 °F (at 5:40 AM)
Average temperature yesterday: 89 °F

Past Weeks' High & Low Weather Summary

 TemperatureHumidityPressure
High102 °F (Aug 15, 1:40 PM)94% (Aug 16, 12:10 AM)29.89 "Hg (Aug 16, 12:10 AM)
Low75 °F (Aug 16, 11:40 PM)33% (Aug 28, 2:40 PM)29.62 "Hg (Aug 14, 3:40 PM)
Average87 °F64%29.76 "Hg
* Reported Aug 13 4:40 PM — Aug 28 5:10 PM, Pudukkottai, Weather by CustomWeather, © 2015

Note: Actual official high and low records may vary slightly from our data, if they occured in-between our weather recording intervals... More about our weather records

Advertising

Pudukkottai weather history for previous 24 hours

 ConditionsComfort  
Time TempWeatherWind HumidityBarometerVisibility
5:10 PM
Fri, Aug 28
99 °FPassing clouds.8 mph35%29.68 "HgN/A
4:40 PM99 °FPassing clouds.8 mph35%29.68 "HgN/A
4:10 PM100 °FPassing clouds.8 mph33%29.68 "HgN/A
3:40 PM100 °FPassing clouds.8 mph33%29.68 "HgN/A
3:10 PM100 °FPassing clouds.10 mph33%29.68 "HgN/A
2:40 PM100 °FPassing clouds.10 mph33%29.68 "HgN/A
1:40 PM99 °FPassing clouds.10 mph37%29.71 "HgN/A
1:10 PM97 °FPassing clouds.10 mph39%29.71 "Hg5 mi
12:40 PM97 °FPassing clouds.10 mph39%29.74 "Hg5 mi
12:10 PM95 °FPassing clouds.12 mph41%29.77 "Hg5 mi
11:40 AM93 °FPassing clouds.12 mph44%29.77 "Hg5 mi
11:10 AM91 °FPassing clouds.12 mph46%29.80 "Hg5 mi
10:40 AM91 °FPassing clouds.18 mph46%29.80 "Hg5 mi
10:10 AM88 °FPassing clouds.14 mph52%29.80 "Hg4 mi
9:40 AM88 °FPassing clouds.21 mph55%29.80 "Hg4 mi
9:10 AM86 °FHaze.12 mph62%29.80 "Hg4 mi
8:40 AM84 °FHaze.13 mph62%29.80 "Hg3 mi
8:10 AM84 °FHaze.15 mph62%29.77 "Hg3 mi
7:40 AM82 °FHaze.13 mph66%29.77 "Hg3 mi
7:10 AM81 °FHaze.9 mph70%29.74 "Hg3 mi
6:40 AM81 °FScattered clouds.7 mph70%29.74 "Hg3 mi
6:10 AM81 °FPassing clouds.8 mph70%29.74 "Hg3 mi
5:40 AM79 °FPassing clouds.10 mph74%29.74 "Hg3 mi
4:40 AM81 °FPassing clouds.9 mph70%29.74 "Hg4 mi
4:10 AM81 °FPassing clouds.12 mph70%29.71 "Hg4 mi
3:10 AM81 °FPassing clouds.10 mph70%29.71 "Hg4 mi
2:40 AM81 °FPassing clouds.8 mph70%29.74 "Hg4 mi
2:10 AM82 °FPassing clouds.12 mph66%29.74 "Hg4 mi
1:40 AM82 °FPassing clouds.12 mph70%29.74 "Hg4 mi
12:40 AM82 °FPassing clouds.14 mph62%29.77 "Hg4 mi
12:10 AM84 °FPassing clouds.9 mph62%29.77 "Hg4 mi
10:10 PM
Thu, Aug 27
88 °FPassing clouds.9 mph52%29.77 "Hg4 mi
9:40 PM88 °FPassing clouds.9 mph55%29.77 "Hg4 mi
9:10 PM88 °FPassing clouds.10 mph59%29.77 "Hg4 mi
8:40 PM88 °FPassing clouds.12 mph55%29.74 "Hg4 mi
8:10 PM91 °FPassing clouds.2 mph49%29.74 "Hg4 mi
7:40 PM93 °FPassing clouds.3 mph49%29.71 "Hg4 mi
7:10 PM93 °FPassing clouds.9 mph49%29.68 "Hg4 mi
Weather by CustomWeather, © 2015

See weather overviewHow to use our weather pages